• In United Kingdom
  • List of Countries
  • For 7 days
  • Water Temperature
  • Satellite Maps
  • Weather Map
  • Weather Widgets
  • user-avatar
    Login

    Hourly Weather Gorsk

    Today, 24 May, Thursday

    Time Temperature Precipitation Wind Pressure Humidity
    00:00 +12°C° 0 mm 3 mps 753 mmHg 86%
    01:00 +12°C° 0 mm 3 mps 753 mmHg 88%
    02:00 +11°C° 0 mm 3 mps 753 mmHg 91%
    03:00 +11°C° 0 mm 3 mps 753 mmHg 92%
    04:00 +11°C° 0 mm 3 mps 753 mmHg 93%
    05:00 +10°C° 0 mm 3 mps 753 mmHg 94%
    06:00 +12°C° 0 mm 3 mps 753 mmHg 88%
    07:00 +14°C° 0 mm 3 mps 753 mmHg 82%
    08:00 +17°C° 0 mm 4 mps 753 mmHg 76%
    09:00 +18°C° 0 mm 4 mps 753 mmHg 71%
    10:00 +20°C° 0 mm 4 mps 753 mmHg 65%
    11:00 +21°C° 0 mm 4 mps 753 mmHg 59%
    12:00 +22°C° 0 mm 5 mps 753 mmHg 58%
    13:00 +22°C° 0 mm 5 mps 753 mmHg 56%
    14:00 +23°C° 0 mm 5 mps 752 mmHg 55%
    15:00 +23°C° 0 mm 5 mps 752 mmHg 56%
    16:00 +22°C° 0 mm 5 mps 752 mmHg 58%
    17:00 +22°C° 0 mm 5 mps 752 mmHg 59%
    18:00 +21°C° 0.1 mm 4 mps 752 mmHg 66%
    19:00 +19°C° 0.1 mm 4 mps 752 mmHg 72%
    20:00 +17°C° 0.1 mm 3 mps 752 mmHg 79%
    21:00 +16°C° 0 mm 3 mps 752 mmHg 82%
    22:00 +14°C° 0 mm 3 mps 752 mmHg 85%
    23:00 +14°C° 0 mm 3 mps 752 mmHg 88%

    Tomorrow, 25 May, Friday

    Time Temperature Precipitation Wind Pressure Humidity
    00:00 +14°C° 0 mm 2 mps 752 mmHg 90%
    01:00 +14°C° 0 mm 2 mps 752 mmHg 92%
    02:00 +13°C° 0 mm 2 mps 752 mmHg 93%
    03:00 +13°C° 0 mm 2 mps 752 mmHg 94%
    04:00 +13°C° 0 mm 2 mps 752 mmHg 94%
    05:00 +13°C° 0 mm 2 mps 752 mmHg 95%
    06:00 +14°C° 0 mm 2 mps 752 mmHg 89%
    07:00 +16°C° 0 mm 2 mps 752 mmHg 83%
    08:00 +18°C° 0 mm 3 mps 752 mmHg 78%
    09:00 +20°C° 0.1 mm 3 mps 752 mmHg 71%
    10:00 +21°C° 0.1 mm 3 mps 752 mmHg 64%
    11:00 +24°C° 0.1 mm 3 mps 753 mmHg 58%
    12:00 +25°C° 0.1 mm 4 mps 753 mmHg 56%
    13:00 +26°C° 0.1 mm 4 mps 753 mmHg 54%
    14:00 +26°C° 0.1 mm 4 mps 753 mmHg 52%
    15:00 +26°C° 0.4 mm 4 mps 752 mmHg 57%
    16:00 +25°C° 0.4 mm 4 mps 752 mmHg 62%
    17:00 +25°C° 0.4 mm 4 mps 752 mmHg 67%
    18:00 +23°C° 0.4 mm 4 mps 753 mmHg 72%
    19:00 +21°C° 0.4 mm 3 mps 753 mmHg 77%
    20:00 +20°C° 0.4 mm 3 mps 753 mmHg 82%
    21:00 +19°C° 0 mm 3 mps 753 mmHg 83%
    22:00 +18°C° 0 mm 4 mps 754 mmHg 84%
    23:00 +17°C° 0 mm 4 mps 754 mmHg 85%

    Day after tomorrow, 26 May, Saturday

    Time Temperature Precipitation Wind Pressure Humidity
    00:00 +17°C° 0 mm 4 mps 754 mmHg 86%
    01:00 +17°C° 0 mm 4 mps 754 mmHg 88%
    02:00 +15°C° 0 mm 4 mps 755 mmHg 89%
    03:00 +15°C° 0 mm 4 mps 755 mmHg 90%
    04:00 +14°C° 0 mm 4 mps 755 mmHg 91%
    05:00 +14°C° 0 mm 4 mps 755 mmHg 92%
    06:00 +15°C° 0 mm 4 mps 755 mmHg 88%
    07:00 +17°C° 0 mm 5 mps 755 mmHg 83%
    08:00 +19°C° 0 mm 5 mps 756 mmHg 79%
    09:00 +20°C° 0 mm 5 mps 756 mmHg 73%
    10:00 +21°C° 0 mm 5 mps 756 mmHg 67%
    11:00 +22°C° 0 mm 5 mps 756 mmHg 60%
    12:00 +23°C° 0 mm 5 mps 755 mmHg 57%
    13:00 +23°C° 0 mm 5 mps 755 mmHg 54%
    14:00 +23°C° 0 mm 5 mps 755 mmHg 52%
    15:00 +23°C° 0 mm 5 mps 755 mmHg 53%
    16:00 +23°C° 0 mm 5 mps 754 mmHg 54%
    17:00 +23°C° 0 mm 5 mps 754 mmHg 55%
    18:00 +21°C° 0 mm 4 mps 754 mmHg 61%
    19:00 +20°C° 0 mm 4 mps 754 mmHg 67%
    20:00 +18°C° 0 mm 3 mps 754 mmHg 72%
    21:00 +17°C° 0 mm 3 mps 754 mmHg 74%
    22:00 +16°C° 0 mm 3 mps 754 mmHg 75%
    23:00 +14°C° 0 mm 4 mps 755 mmHg 77%

    27 May, Sunday

    Time Temperature Precipitation Wind Pressure Humidity
    00:00 +14°C° 0 mm 3 mps 755 mmHg 81%
    01:00 +13°C° 0 mm 3 mps 754 mmHg 85%
    02:00 +13°C° 0 mm 3 mps 754 mmHg 89%
    03:00 +13°C° 0 mm 3 mps 754 mmHg 90%
    04:00 +12°C° 0 mm 3 mps 754 mmHg 92%
    05:00 +12°C° 0 mm 3 mps 754 mmHg 93%
    06:00 +13°C° 0 mm 3 mps 754 mmHg 88%
    07:00 +15°C° 0 mm 4 mps 755 mmHg 82%
    08:00 +17°C° 0 mm 4 mps 755 mmHg 77%
    09:00 +19°C° 0 mm 4 mps 755 mmHg 73%
    10:00 +20°C° 0 mm 4 mps 755 mmHg 70%
    11:00 +21°C° 0 mm 4 mps 755 mmHg 66%
    12:00 +22°C° 0 mm 4 mps 754 mmHg 65%
    13:00 +22°C° 0 mm 4 mps 754 mmHg 65%
    14:00 +23°C° 0 mm 4 mps 754 mmHg 64%
    15:00 +23°C° 0 mm 4 mps 754 mmHg 64%
    16:00 +24°C° 0 mm 3 mps 754 mmHg 65%
    17:00 +24°C° 0 mm 3 mps 754 mmHg 65%
    18:00 +22°C° 0 mm 3 mps 754 mmHg 71%
    19:00 +20°C° 0 mm 3 mps 754 mmHg 76%
    20:00 +19°C° 0 mm 3 mps 754 mmHg 81%
    21:00 +18°C° 0 mm 3 mps 755 mmHg 83%
    22:00 +17°C° 0 mm 3 mps 755 mmHg 86%
    23:00 +16°C° 0 mm 2 mps 755 mmHg 88%

    28 May, Monday

    Time Temperature Precipitation Wind Pressure Humidity
    00:00 +16°C° 0 mm 2 mps 755 mmHg 89%
    01:00 +15°C° 0 mm 2 mps 755 mmHg 91%
    02:00 +15°C° 0 mm 2 mps 756 mmHg 92%
    03:00 +15°C° 0 mm 2 mps 756 mmHg 92%
    04:00 +15°C° 0 mm 2 mps 756 mmHg 92%
    05:00 +14°C° 0 mm 2 mps 756 mmHg 92%
    06:00 +16°C° 0 mm 3 mps 756 mmHg 86%
    07:00 +18°C° 0 mm 3 mps 757 mmHg 80%
    08:00 +20°C° 0 mm 4 mps 757 mmHg 75%
    09:00 +21°C° 0 mm 4 mps 757 mmHg 69%
    10:00 +22°C° 0 mm 4 mps 757 mmHg 64%
    11:00 +23°C° 0 mm 4 mps 757 mmHg 58%
    12:00 +25°C° 0 mm 4 mps 757 mmHg 57%
    13:00 +25°C° 0 mm 4 mps 757 mmHg 55%
    14:00 +26°C° 0 mm 4 mps 757 mmHg 53%
    15:00 +26°C° 0 mm 4 mps 757 mmHg 54%
    16:00 +25°C° 0 mm 4 mps 757 mmHg 55%
    17:00 +25°C° 0 mm 4 mps 757 mmHg 56%
    18:00 +23°C° 0 mm 4 mps 757 mmHg 62%
    19:00 +21°C° 0 mm 3 mps 757 mmHg 68%
    20:00 +19°C° 0 mm 3 mps 757 mmHg 74%
    21:00 +18°C° 0 mm 3 mps 757 mmHg 74%
    22:00 +17°C° 0 mm 3 mps 757 mmHg 75%
    23:00 +16°C° 0 mm 3 mps 758 mmHg 76%

    29 May, Tuesday

    Time Temperature Precipitation Wind Pressure Humidity
    00:00 +16°C° 0 mm 3 mps 758 mmHg 77%
    01:00 +14°C° 0 mm 3 mps 758 mmHg 79%
    02:00 +15°C° 0 mm 2 mps 758 mmHg 80%
    03:00 +14°C° 0 mm 2 mps 758 mmHg 82%
    04:00 +14°C° 0 mm 2 mps 758 mmHg 84%
    05:00 +14°C° 0 mm 2 mps 758 mmHg 85%
    06:00 +16°C° 0 mm 3 mps 758 mmHg 81%
    07:00 +18°C° 0 mm 3 mps 758 mmHg 77%
    08:00 +20°C° 0 mm 3 mps 758 mmHg 72%
    09:00 +21°C° 0 mm 4 mps 758 mmHg 67%
    10:00 +23°C° 0 mm 4 mps 758 mmHg 62%
    11:00 +25°C° 0 mm 4 mps 758 mmHg 57%
    12:00 +26°C° 0 mm 4 mps 758 mmHg 55%
    13:00 +26°C° 0 mm 4 mps 757 mmHg 54%
    14:00 +27°C° 0 mm 4 mps 757 mmHg 53%
    15:00 +27°C° 0 mm 4 mps 757 mmHg 55%
    16:00 +26°C° 0 mm 4 mps 756 mmHg 57%
    17:00 +26°C° 0 mm 3 mps 756 mmHg 59%
    18:00 +25°C° 0 mm 3 mps 756 mmHg 64%
    19:00 +22°C° 0 mm 3 mps 756 mmHg 69%
    20:00 +21°C° 0 mm 2 mps 756 mmHg 74%
    21:00 +20°C° 0 mm 2 mps 756 mmHg 73%
    22:00 +19°C° 0 mm 3 mps 756 mmHg 72%
    23:00 +18°C° 0 mm 3 mps 756 mmHg 72%
    Show more